TimeEDT,TemperatureF,Dew PointF,Humidity,Sea Level PressureIn,VisibilityMPH,Wind Direction,Wind SpeedMPH,Gust SpeedMPH,PrecipitationIn,Events,Conditions,WindDirDegrees,DateUTC
12:15 AM,57.2,53.6,88,30.29,10.0,South,5.8,-,N/A,,Clear,180,2013-09-18 04:15:00
12:35 AM,57.2,53.6,88,30.28,10.0,SSE,5.8,-,N/A,,Clear,150,2013-09-18 04:35:00
12:55 AM,57.2,53.6,88,30.28,10.0,South,4.6,-,N/A,,Clear,170,2013-09-18 04:55:00
1:15 AM,57.2,53.6,88,30.28,10.0,SSE,5.8,-,N/A,,Scattered Clouds,150,2013-09-18 05:15:00
1:35 AM,57.2,53.6,88,30.28,10.0,SSE,6.9,-,N/A,,Clear,160,2013-09-18 05:35:00
1:55 AM,57.2,53.6,88,30.28,10.0,SSE,5.8,-,N/A,,Clear,160,2013-09-18 05:55:00
2:15 AM,57.2,51.8,82,30.28,10.0,South,6.9,-,N/A,,Scattered Clouds,170,2013-09-18 06:15:00
2:35 AM,57.2,53.6,88,30.28,10.0,SSE,8.1,-,N/A,,Scattered Clouds,160,2013-09-18 06:35:00
2:55 AM,57.2,51.8,82,30.27,10.0,South,5.8,-,N/A,,Clear,180,2013-09-18 06:55:00
3:15 AM,57.2,51.8,82,30.27,10.0,SSW,6.9,-,N/A,,Clear,200,2013-09-18 07:15:00
3:35 AM,57.2,51.8,82,30.27,10.0,South,8.1,-,N/A,,Clear,170,2013-09-18 07:35:00
3:55 AM,57.2,51.8,82,30.26,10.0,South,6.9,-,N/A,,Clear,170,2013-09-18 07:55:00
4:15 AM,55.4,51.8,88,30.26,10.0,South,6.9,-,N/A,,Clear,180,2013-09-18 08:15:00
4:35 AM,55.4,51.8,88,30.26,10.0,South,6.9,-,N/A,,Clear,180,2013-09-18 08:35:00
4:55 AM,55.4,51.8,88,30.26,10.0,South,6.9,-,N/A,,Clear,180,2013-09-18 08:55:00
5:15 AM,57.2,51.8,82,30.26,10.0,South,5.8,-,N/A,,Clear,170,2013-09-18 09:15:00
5:35 AM,55.4,51.8,88,30.26,10.0,South,6.9,-,N/A,,Clear,180,2013-09-18 09:35:00
5:55 AM,57.2,51.8,82,30.27,10.0,South,8.1,-,N/A,,Clear,170,2013-09-18 09:55:00
6:15 AM,55.4,51.8,88,30.27,10.0,South,6.9,-,N/A,,Clear,180,2013-09-18 10:15:00
6:35 AM,57.2,51.8,82,30.27,10.0,South,6.9,-,N/A,,Clear,170,2013-09-18 10:35:00
6:55 AM,57.2,51.8,82,30.27,10.0,South,6.9,-,N/A,,Scattered Clouds,170,2013-09-18 10:55:00
7:15 AM,57.2,51.8,82,30.27,10.0,South,6.9,-,N/A,,Scattered Clouds,170,2013-09-18 11:15:00
7:35 AM,57.2,51.8,82,30.27,10.0,SSE,5.8,-,N/A,,Clear,160,2013-09-18 11:35:00
7:55 AM,59.0,51.8,77,30.28,10.0,SSE,8.1,-,N/A,,Scattered Clouds,160,2013-09-18 11:55:00
8:15 AM,59.0,51.8,77,30.28,10.0,SSE,6.9,-,N/A,,Scattered Clouds,150,2013-09-18 12:15:00
8:35 AM,59.0,51.8,77,30.28,10.0,SSE,5.8,-,N/A,,Scattered Clouds,150,2013-09-18 12:35:00
8:55 AM,60.8,53.6,77,30.28,10.0,South,8.1,-,N/A,,Scattered Clouds,170,2013-09-18 12:55:00
9:15 AM,60.8,53.6,77,30.28,10.0,South,5.8,-,N/A,,Scattered Clouds,170,2013-09-18 13:15:00
9:35 AM,62.6,53.6,72,30.28,10.0,SSE,4.6,-,N/A,,Mostly Cloudy,150,2013-09-18 13:35:00
9:55 AM,62.6,53.6,72,30.29,10.0,South,5.8,-,N/A,,Overcast,170,2013-09-18 13:55:00
10:15 AM,62.6,55.4,77,30.30,10.0,South,5.8,-,N/A,,Overcast,190,2013-09-18 14:15:00
10:35 AM,60.8,55.4,82,30.30,10.0,SSW,5.8,-,N/A,,Overcast,200,2013-09-18 14:35:00
10:55 AM,60.8,55.4,82,30.30,10.0,WSW,5.8,-,N/A,,Overcast,240,2013-09-18 14:55:00
11:15 AM,60.8,55.4,82,30.30,10.0,WSW,6.9,-,N/A,,Overcast,240,2013-09-18 15:15:00
11:35 AM,59.0,59.0,100,30.30,3.0,SW,3.5,-,N/A,,Drizzle,220,2013-09-18 15:35:00
11:55 AM,59.0,59.0,100,30.30,4.0,SSW,3.5,-,0.01,Rain,Rain,210,2013-09-18 15:55:00
12:15 PM,59.0,59.0,100,30.30,3.0,South,3.5,-,0.03,Rain,Rain,170,2013-09-18 16:15:00
12:35 PM,59.0,59.0,100,30.30,1.8,SW,3.5,-,0.07,Rain,Light Rain,220,2013-09-18 16:35:00
12:55 PM,59.0,59.0,100,30.29,2.0,SW,4.6,-,0.08,Rain,Rain,230,2013-09-18 16:55:00
1:15 PM,59.0,59.0,100,30.29,4.0,SSW,3.5,-,0.01,Rain,Light Rain,210,2013-09-18 17:15:00
1:35 PM,59.0,59.0,100,30.28,5.0,SW,3.5,-,0.02,Rain,Rain,220,2013-09-18 17:35:00
1:55 PM,59.0,59.0,100,30.28,5.0,South,3.5,-,0.03,Rain,Light Rain,190,2013-09-18 17:55:00
2:15 PM,60.8,60.8,100,30.27,7.0,South,3.5,-,N/A,,Overcast,170,2013-09-18 18:15:00
2:35 PM,60.8,60.8,100,30.27,7.0,South,3.5,-,0.02,Rain,Light Rain,170,2013-09-18 18:35:00
2:55 PM,60.8,60.8,100,30.27,7.0,SE,3.5,-,0.02,,Light Drizzle,140,2013-09-18 18:55:00
3:15 PM,60.8,60.8,100,30.26,7.0,SE,4.6,-,N/A,,Overcast,140,2013-09-18 19:15:00
3:35 PM,60.8,60.8,100,30.25,7.0,SSE,4.6,-,N/A,,Overcast,150,2013-09-18 19:35:00
3:55 PM,60.8,60.8,100,30.25,3.0,SSE,4.6,-,0.02,Rain,Heavy Rain,160,2013-09-18 19:55:00
4:15 PM,60.8,60.8,100,30.24,3.0,South,3.5,-,0.05,Rain,Heavy Rain,170,2013-09-18 20:15:00
4:35 PM,60.8,60.8,100,30.24,3.0,South,3.5,-,0.13,Rain,Rain,170,2013-09-18 20:35:00
4:55 PM,60.8,60.8,100,30.23,4.0,SSW,3.5,-,0.15,Rain,Light Rain,200,2013-09-18 20:55:00
5:15 PM,60.8,60.8,100,30.23,10.0,SSW,5.8,-,N/A,,Overcast,210,2013-09-18 21:15:00
5:35 PM,60.8,60.8,100,30.23,10.0,SW,5.8,-,N/A,,Overcast,220,2013-09-18 21:35:00
5:55 PM,60.8,60.8,100,30.24,7.0,SW,4.6,-,N/A,,Overcast,220,2013-09-18 21:55:00
6:15 PM,60.8,60.8,100,30.23,5.0,South,3.5,-,N/A,,Overcast,170,2013-09-18 22:15:00
6:35 PM,60.8,60.8,100,30.23,5.0,SSW,3.5,-,N/A,,Overcast,210,2013-09-18 22:35:00
6:55 PM,60.8,60.8,100,30.23,7.0,SW,4.6,-,N/A,,Overcast,220,2013-09-18 22:55:00
7:15 PM,60.8,60.8,100,30.23,7.0,SW,4.6,-,N/A,,Overcast,220,2013-09-18 23:15:00
7:35 PM,59.0,59.0,100,30.22,4.0,SSW,4.6,-,N/A,,Overcast,210,2013-09-18 23:35:00
7:55 PM,59.0,59.0,100,30.22,3.0,SW,4.6,-,N/A,,Overcast,220,2013-09-18 23:55:00
8:15 PM,59.0,59.0,100,30.23,5.0,SSW,3.5,-,N/A,,Overcast,210,2013-09-19 00:15:00
8:35 PM,59.0,59.0,100,30.23,4.0,SSW,3.5,-,N/A,,Overcast,200,2013-09-19 00:35:00
8:55 PM,59.0,59.0,100,30.24,5.0,SW,3.5,-,N/A,,Overcast,220,2013-09-19 00:55:00
9:15 PM,59.0,59.0,100,30.24,3.0,SW,4.6,-,N/A,,Overcast,230,2013-09-19 01:15:00
9:35 PM,59.0,59.0,100,30.24,4.0,SSW,3.5,-,N/A,,Overcast,210,2013-09-19 01:35:00
9:55 PM,59.0,59.0,100,30.25,4.0,SSW,4.6,-,N/A,,Overcast,210,2013-09-19 01:55:00
10:15 PM,59.0,59.0,100,30.25,3.0,SSW,5.8,-,N/A,,Overcast,210,2013-09-19 02:15:00
10:35 PM,59.0,59.0,100,30.25,3.0,SSW,6.9,-,N/A,,Overcast,210,2013-09-19 02:35:00
10:55 PM,59.0,59.0,100,30.24,3.0,SSW,5.8,-,N/A,,Overcast,210,2013-09-19 02:55:00
11:15 PM,59.0,59.0,100,30.24,3.0,SSW,5.8,-,N/A,,Overcast,210,2013-09-19 03:15:00
11:35 PM,59.0,59.0,100,30.24,5.0,SSW,6.9,-,N/A,,Overcast,200,2013-09-19 03:35:00
11:55 PM,59.0,59.0,100,30.24,5.0,SSW,4.6,-,N/A,,Overcast,210,2013-09-19 03:55:00